CAPE
0 0 0 0 0 0 0 0 0 0 0 0 0 0 0 0 0 0 0 0 0 0 0 0 0 0 0 4 9 8 3 2 10 0 0 1 0 0 0 0 0 0 0
0 0 0 0 0 0 0 0 0 0 0 0 0 0 0 0 0 0 0 0 0 0 0 0 0 1 0 0 2 5 6 1 3 2 0 2 0 0 0 0 0 0 0
0 0 0 0 0 0 0 0 0 0 0 0 0 0 0 0 0 0 0 0 0 0 0 0 0 1 0 0 0 2 3 6 2 4 0 0 0 0 0 0 0 1 0
0 0 0 0 0 0 0 0 0 0 0 0 0 0 0 0 0 0 0 0 0 0 0 0 0 1 1 1 2 1 1 0 0 0 0 1 0 0 0 0 0 1 0
0 0 0 0 0 0 0 0 0 0 0 0 0 0 0 0 0 0 0 0 0 0 0 0 0 2 0 0 0 1 1 2 1 1 1 1 0 0 0 0 0 1 1
0 0 0 0 0 0 0 0 0 0 0 0 0 0 0 0 0 0 0 0 0 0 0 0 0 0 0 0 1 0 2 2 2 2 2 2 0 0 0 0 0 0 0
0 0 0 0 0 0 0 0 0 0 0 0 0 0 0 0 0 0 0 0 0 0 0 0 0 0 0 0 0 0 2 0 1 2 2 2 1 0 0 0 0 0 1
0 0 0 0 0 0 0 0 0 0 0 0 0 0 0 0 0 0 0 0 0 0 0 0 0 0 1 0 1 1 1 1 1 1 1 1 0 0 0 0 0 0 0
0 0 0 0 0 0 0 0 0 0 0 0 0 0 0 0 0 0 0 0 0 0 1 1 1 1 1 2 1 2 2 1 0 1 1 1 1 1 1 0 0 0 0
0 0 0 0 0 0 0 0 0 0 0 0 0 0 0 0 0 0 0 1 0 1 1 0 0 1 0 0 1 1 1 1 0 0 0 0 0 0 0 0 0 0 0
0 0 0 0 0 0 0 0 0 0 0 0 0 0 0 0 0 0 0 1 0 0 0 0 0 0 0 1 6 0 0 0 0 0 0 0 0 0 0 0 0 0 0
0 0 0 0 0 0 0 0 0 0 0 0 0 0 0 0 0 0 1 1 1 0 0 0 1 0 3 3 2 1 0 0 0 0 0 0 0 0 0 0 0 0 1
0 0 0 0 0 0 0 0 0 0 0 0 0 0 0 0 0 1 0 1 2 1 0 0 0 2 1 0 1 0 0 0 0 0 0 0 0 0 0 0 0 0 0
0 0 0 0 0 0 0 0 0 0 0 0 0 0 0 0 0 0 0 0 0 1 1 0 0 1 0 1 0 1 0 0 0 0 0 0 1 0 0 0 0 0 0
0 0 0 0 0 0 0 0 0 0 0 0 1 1 1 1 0 4 5 1 1 1 1 0 0 0 0 0 0 0 0 0 0 0 1 2 2 0 1 0 0 0 0
0 0 0 0 0 0 0 0 0 0 0 0 0 1 2 2 3 3 1 4 2 2 0 0 0 0 0 0 0 0 0 0 1 2 1 1 2 1 0 0 0 0 0
0 0 0 0 0 0 0 0 0 0 0 0 0 0 1 1 2 2 4 3 2 0 0 0 0 0 0 0 0 0 0 0 0 1 1 1 0 0 0 0 0 0 0
0 0 0 0 0 0 0 0 0 0 0 0 0 0 0 1 2 4 6 2 0 0 0 0 0 0 0 0 0 0 0 0 0 0 0 0 0 0 0 0 0 0 0
0 0 0 0 0 0 0 0 0 0 1 0 0 0 2 1 3 2 4 1 0 0 0 0 0 0 0 0 0 0 0 0 0 0 0 0 0 0 0 0 0 0 0
0 0 0 0 0 0 0 0 0 0 1 0 0 0 0 0 0 1 0 0 0 0 0 0 0 0 0 0 0 0 0 0 0 0 0 0 0 0 0 0 0 0 0
0 0 0 0 0 0 0 0 0 0 0 0 0 0 0 0 3 0 0 0 0 0 0 0 0 0 0 0 0 0 0 0 0 0 0 0 0 0 0 0 0 0 0
0 0 0 0 0 0 0 0 1 0 0 0 0 0 0 0 1 0 0 0 0 0 0 0 0 0 0 0 0 0 0 0 0 0 0 0 0 0 0 0 0 0 0
0 0 0 0 0 0 0 0 0 0 0 0 0 0 0 0 0 0 0 0 0 0 0 0 0 0 0 0 0 0 0 0 0 0 0 0 0 0 0 0 0 0 0
0 0 0 0 0 0 0 0 1 0 0 0 0 0 0 0 0 0 0 0 0 0 0 0 0 0 0 0 0 0 0 0 0 0 0 0 0 0 0 0 0 0 0
0 0 0 0 0 0 0 0 0 0 0 0 0 0 0 0 0 0 0 0 0 0 0 0 0 0 0 0 0 0 0 0 0 0 0 0 0 0 0 0 0 0 0
0 0 0 0 0 0 0 0 0 0 0 0 0 0 0 0 0 0 0 0 0 0 0 0 0 0 0 0 0 0 0 0 0 0 0 0 0 0 0 0 0 0 0
CIN
-0 -0 -0 -0 -0 -0 -0 -0 -0 -0 -0 -0 -0 -0 -0 -0 -0 -0 -0 -0 -0 -0 -0 -0 -0 -0 -0 -0 -0 -0 -0 -0 -0 -0 -1 -2 -0 -0 -0 -0 -0 -0 -0
-0 -0 -0 -0 -0 -0 -0 -0 -0 -0 -0 -0 -0 -0 -0 -0 -0 -0 -0 -0 -0 -0 -0 -0 -0 -0 -0 -0 -2 -0 -0 -0 -0 -0 -0 -1 -0 -0 -0 -0 -0 -0 -0
-0 -0 -0 -0 -0 -0 -0 -0 -0 -0 -0 -0 -0 -0 -0 -0 -0 -0 -0 -0 -0 -0 -0 -0 -0 -0 -0 -0 -1 -1 -0 -0 -0 -0 -0 -1 -0 -0 -0 -0 -0 -0 -0
-0 -0 -0 -0 -0 -0 -0 -0 -0 -0 -0 -0 -0 -0 -0 -0 -0 -0 -0 -0 -0 -0 -0 -0 -0 -0 -0 -0 -0 -0 -0 -0 -0 -0 -0 -0 -0 -0 -0 -0 -0 -0 -0
-0 -0 -0 -0 -0 -0 -0 -0 -0 -0 -0 -0 -0 -0 -0 -0 -0 -0 -0 -0 -0 -0 -0 -0 -0 -0 -0 -0 -0 -0 -0 -0 -0 -0 -0 -0 -0 -0 -0 -0 -0 -0 -0
-0 -0 -0 -0 -0 -0 -0 -0 -0 -0 -0 -0 -0 -0 -0 -0 -0 -0 -0 -0 -0 -0 -0 -0 -0 -0 -0 -0 -0 -0 -0 -0 -0 -0 -0 -0 -0 -0 -0 -0 -0 -0 -0
-0 -0 -0 -0 -0 -0 -0 -0 -0 -0 -0 -0 -0 -0 -0 -0 -0 -0 -0 -0 -0 -0 -0 -0 -0 -0 -0 -0 -0 -0 -0 -0 -0 -0 -0 -0 -0 -0 -0 -0 -0 -0 -0
-0 -0 -0 -0 -0 -0 -0 -0 -0 -0 -0 -0 -0 -0 -0 -0 -0 -0 -0 -0 -0 -0 -0 -0 -0 -0 -0 -0 -0 -0 -0 -0 -0 -0 -0 -0 -0 -0 -0 -0 -0 -0 -0
-0 -0 -0 -0 -0 -0 -0 -0 -0 -0 -0 -0 -0 -0 -0 -0 -0 -0 -0 -0 -0 -0 -0 -0 -0 -0 -0 -0 -0 -0 -0 -0 -0 -0 -0 -0 -0 -0 -0 -0 -0 -0 -0
-0 -0 -0 -0 -0 -0 -0 -0 -0 -0 -0 -0 -0 -0 -0 -0 -0 -0 -0 -0 -0 -0 -0 -0 -0 -0 -0 -0 -0 -0 -0 -0 -0 -0 -0 -0 -0 -0 -0 -0 -0 -0 -0
-0 -0 -0 -0 -0 -0 -0 -0 -0 -0 -0 -0 -0 -0 -0 -0 -0 -0 -0 -0 -0 -0 -0 -0 -0 -0 -0 -0 -0 -0 -0 -0 -0 -0 -0 -0 -0 -0 -0 -0 -0 -0 -0
-0 -0 -0 -0 -0 -0 -0 -0 -0 -0 -0 -0 -0 -0 -0 -0 -0 -0 -0 -0 -0 -0 -0 -0 -0 -0 -0 -0 -0 -0 -0 -0 -0 -0 -0 -0 -0 -0 -0 -0 -0 -0 -0
-0 -0 -0 -0 -0 -0 -0 -0 -0 -0 -0 -0 -0 -0 -0 -0 -0 -0 -0 -0 -0 -0 -0 -1 -0 -0 -0 -0 -0 -0 -0 -0 -0 -0 -0 -0 -0 -0 -0 -0 -0 -0 -0
-0 -0 -0 -0 -0 -0 -0 -0 -0 -0 -0 -0 -0 -0 -0 -0 -0 -0 -0 -0 -0 -0 -0 -0 -0 -0 -0 -0 -0 -0 -0 -0 -0 -0 -0 -0 -0 -0 -0 -0 -0 -0 -0
-0 -0 -0 -0 -0 -0 -0 -0 -0 -0 -0 -0 -0 -0 -0 -0 -0 -0 -0 -0 -1 -0 -0 -1 -0 -0 -0 -0 -0 -0 -0 -0 -0 -0 -0 -0 -0 -0 -0 -0 -0 -0 -0
-0 -0 -0 -0 -0 -0 -0 -0 -0 -0 -0 -0 -0 -0 -0 -0 -0 -0 -0 -0 -0 -0 -0 -0 -0 -0 -0 -0 -0 -0 -0 -0 -0 -0 -0 -0 -0 -0 -0 -0 -0 -0 -0
-0 -0 -0 -0 -0 -0 -0 -0 -0 -0 -0 -0 -0 -0 -1 -0 -0 -0 -0 -0 -0 -0 -0 -0 -0 -0 -0 -0 -0 -0 -0 -0 -0 -0 -0 -0 -0 -0 -0 -0 -0 -0 -0
-0 -0 -0 -0 -0 -0 -0 -0 -0 -0 -0 -0 -0 -0 -0 -0 -0 -0 -0 -0 -0 -0 -0 -0 -0 -0 -0 -0 -0 -0 -0 -0 -0 -0 -0 -0 -0 -0 -0 -0 -0 -0 -0
-0 -0 -0 -0 -0 -0 -0 -0 -0 -0 -0 -0 -0 -0 -0 -0 -0 -0 -0 -0 -0 -0 -0 -0 -0 -0 -0 -0 -0 -0 -0 -0 -0 -0 -0 -0 -0 -0 -0 -0 -0 -0 -0
-0 -0 -0 -0 -0 -0 -0 -0 -0 -0 -0 -0 -0 -0 -0 -0 -0 -0 -0 -0 -0 -0 -0 -0 -0 -0 -0 -0 -0 -0 -0 -0 -0 -0 -0 -0 -0 -0 -0 -0 -0 -0 -0
-0 -0 -0 -0 -0 -0 -0 -0 -0 -0 -0 -0 -0 -0 -0 -0 -1 -0 -0 -0 -0 -0 -0 -0 -0 -0 -0 -0 -0 -0 -0 -0 -0 -0 -0 -0 -0 -0 -0 -0 -0 -0 -0
-0 -0 -0 -0 -0 -0 -0 -0 -0 -0 -0 -0 -0 -0 -0 -0 -1 -0 -0 -0 -0 -0 -0 -0 -0 -0 -0 -0 -0 -0 -0 -0 -0 -0 -0 -0 -0 -0 -0 -0 -0 -0 -0
-0 -0 -0 -0 -0 -0 -0 -0 -0 -0 -0 -0 -0 -0 -0 -0 -0 -0 -0 -0 -0 -0 -0 -0 -0 -0 -0 -0 -0 -0 -0 -0 -0 -0 -0 -0 -0 -0 -0 -0 -0 -0 -0
-0 -0 -0 -0 -0 -0 -0 -0 -0 -0 -0 -0 -0 -0 -0 -0 -0 -0 -0 -0 -0 -0 -0 -0 -0 -0 -0 -0 -0 -0 -0 -0 -0 -0 -0 -0 -0 -0 -0 -0 -0 -0 -0
-0 -0 -0 -0 -0 -0 -0 -0 -0 -0 -0 -0 -0 -0 -0 -0 -0 -0 -0 -0 -0 -0 -0 -0 -0 -0 -0 -0 -0 -0 -0 -0 -0 -0 -0 -0 -0 -0 -0 -0 -0 -0 -0
-0 -0 -0 -0 -0 -0 -0 -0 -0 -0 -0 -0 -0 -0 -0 -0 -0 -0 -0 -0 -0 -0 -0 -0 -0 -0 -0 -0 -0 -0 -0 -0 -0 -0 -0 -0 -0 -0 -0 -0 -0 -0 -0
Wind_Speed
14 15 16 18 19 20 22 23 25 26 28 30 31 32 34 36 36 38 39 39 40 41 40 41 41 41 41 40 40 40 41 40 47 53 48 47 47 44 44 41 41 42 42
15 16 18 19 21 23 24 26 27 29 30 32 33 35 37 39 39 41 42 41 42 42 42 42 43 43 44 44 44 44 45 44 47 53 54 52 49 46 44 44 43 42 42
16 18 19 21 23 25 27 28 30 32 33 34 36 38 39 40 41 40 41 43 43 43 44 45 46 46 47 46 47 47 47 46 47 51 55 51 50 46 46 45 45 44 42
18 19 21 23 25 27 29 31 33 34 35 36 37 38 40 41 41 42 44 46 46 46 45 45 46 47 48 49 49 49 49 49 49 50 53 53 50 46 45 48 49 43 44
19 21 24 26 28 30 32 34 35 36 37 38 40 41 42 43 43 47 48 48 48 48 47 47 47 47 47 48 49 50 50 51 51 52 54 53 51 49 48 44 45 43 40
21 24 26 29 32 33 35 37 38 39 39 40 42 43 44 44 45 47 47 49 48 49 51 50 49 50 50 50 49 48 48 50 53 52 53 53 51 47 43 43 42 41 41
23 26 29 31 34 36 37 39 40 42 42 43 44 45 46 46 46 48 49 49 51 51 51 52 53 51 51 51 50 49 48 47 46 49 51 49 48 44 41 38 35 34 32
26 28 31 33 36 38 40 42 42 42 43 45 46 47 48 48 49 50 51 51 52 52 52 53 53 54 52 51 51 51 49 47 45 44 44 45 42 36 32 32 28 26 24
28 31 33 36 39 41 43 44 44 45 46 46 46 48 49 51 50 52 53 53 54 55 53 52 51 52 51 50 50 51 50 47 40 39 37 35 32 28 25 22 22 19 19
31 34 36 38 40 43 44 45 44 45 47 47 49 49 50 53 52 52 52 53 56 56 54 52 49 50 49 48 47 46 46 42 36 32 29 27 23 21 19 18 15 14 12
32 35 38 39 42 42 43 44 46 47 48 50 52 52 52 52 53 53 52 52 53 55 55 53 49 47 47 44 41 38 36 30 25 22 21 20 19 18 17 17 17 15 15
35 38 39 41 42 43 45 46 47 48 51 53 54 56 53 52 51 51 52 51 50 52 50 49 46 45 42 37 34 30 24 19 17 16 16 16 16 17 17 18 18 18 19
37 39 41 42 43 44 47 49 50 50 53 55 56 57 58 53 51 51 51 50 48 46 43 42 39 35 32 29 24 21 18 16 14 14 14 15 16 16 16 17 18 18 19
37 40 42 43 45 45 46 48 52 52 53 54 55 57 57 56 53 50 48 47 44 40 38 34 29 24 21 21 19 18 17 16 15 14 14 15 15 16 16 16 17 17 18
39 41 43 44 47 50 49 49 51 49 49 54 54 53 55 56 51 48 47 44 39 35 32 25 20 17 17 17 16 16 16 15 15 15 14 14 14 15 16 17 17 19 18
40 42 43 46 48 49 52 55 48 49 50 49 50 49 50 48 48 46 43 39 33 28 23 18 15 14 14 13 13 13 14 15 15 14 14 14 15 15 16 17 18 19 19
40 42 44 46 48 50 52 54 60 59 51 51 49 47 46 46 44 40 37 32 27 21 16 14 12 12 12 12 12 13 13 14 14 14 14 15 15 16 17 18 19 19 20
39 42 44 45 47 49 50 52 54 58 62 60 49 47 45 42 39 35 31 26 23 16 13 12 12 12 11 11 11 11 12 13 14 14 15 16 17 17 18 19 19 19 20
40 42 42 44 46 47 49 51 52 53 53 54 53 47 42 38 35 31 26 21 18 14 12 12 12 12 10 10 11 11 12 12 14 14 15 17 18 18 18 19 19 19 19
38 40 41 43 45 48 49 50 51 52 52 50 47 45 41 36 32 28 21 17 16 14 12 12 14 11 10 10 10 11 11 12 14 15 17 18 19 18 18 18 18 18 19
38 40 41 43 45 47 48 50 51 51 50 48 45 40 37 34 30 25 21 19 16 13 12 14 13 9 9 9 11 12 12 13 14 14 16 18 18 17 17 17 17 17 17
37 39 41 44 45 47 48 49 51 49 47 45 41 37 33 28 25 22 20 19 17 14 13 15 12 10 8 9 12 12 12 12 12 14 16 17 16 16 16 16 17 17 17
37 40 43 44 45 47 49 49 49 47 44 40 35 32 29 26 23 21 19 17 16 15 14 15 11 10 10 11 14 14 12 12 12 13 15 15 15 15 15 15 16 17 17
37 40 42 44 45 47 48 49 47 43 39 35 33 31 29 25 20 18 16 14 14 13 15 13 11 12 11 12 14 15 15 14 14 14 14 14 14 14 15 15 15 16 15
37 39 41 43 44 46 47 47 45 41 38 34 34 31 26 21 18 16 14 13 12 13 14 12 12 13 13 13 15 16 15 14 14 14 14 14 14 14 14 14 14 15 16
37 38 39 40 41 43 44 44 41 37 37 33 31 27 22 18 15 12 11 11 12 13 12 14 15 15 15 16 16 15 14 14 14 14 15 15 15 15 15 15 15 16 17
Wind_Direction
356 356 355 353 351 349 346 343 340 338 336 335 334 332 331 329 328 326 324 323 322 321 320 319 318 318 316 314 313 310 307 305 303 304 307 309 309 307 307 307 308 308 309
350 351 349 350 348 343 341 341 339 336 334 332 331 329 328 326 326 324 323 323 322 321 321 320 318 318 316 314 313 310 308 307 305 304 307 308 307 307 308 308 308 309 309
347 346 344 342 341 340 338 337 336 333 332 330 329 328 327 327 326 326 325 324 323 322 320 319 318 317 314 314 312 310 309 307 306 304 304 307 307 307 307 307 308 308 309
341 341 341 340 339 338 336 335 334 333 332 331 330 329 328 327 327 326 324 323 322 321 320 319 318 316 314 314 312 310 309 307 306 304 304 305 306 307 307 306 307 308 308
338 338 337 337 336 335 334 333 331 331 330 329 328 328 328 327 326 325 324 322 321 320 319 318 317 316 314 312 311 311 310 308 307 306 305 305 305 306 305 309 307 309 311
333 333 333 332 332 331 330 329 329 330 330 329 328 328 327 326 326 325 324 322 321 319 318 317 317 316 315 313 312 310 309 308 307 306 305 304 305 306 307 307 308 309 310
329 329 330 330 328 328 328 328 328 328 329 328 327 327 326 326 326 325 324 321 319 318 317 317 316 316 315 314 313 312 310 309 307 306 304 304 305 306 307 308 308 310 311
326 326 327 327 326 326 326 326 327 328 328 327 326 325 324 324 324 323 322 320 318 317 316 316 315 315 315 314 313 312 312 312 311 309 306 306 306 307 307 310 311 315 320
323 324 325 325 324 324 324 325 327 327 327 326 326 325 324 323 324 323 322 320 318 317 317 317 317 316 317 316 314 313 314 314 316 315 313 313 313 314 315 317 315 319 322
322 322 323 324 323 323 324 324 326 326 325 325 324 324 323 322 323 323 322 320 318 318 318 318 318 318 317 318 315 315 314 318 321 323 326 328 332 333 337 335 338 341 357
322 322 322 323 323 324 324 325 325 325 324 324 323 323 323 322 322 322 322 321 319 318 318 319 320 320 319 319 319 319 320 326 332 337 344 349 353 358 5 10 9 7 5
320 320 321 322 323 324 323 324 324 324 323 323 322 322 323 323 323 323 323 323 321 319 319 320 321 322 323 325 326 328 333 343 352 359 3 10 18 20 20 23 21 20 18
319 319 320 322 323 323 323 323 323 323 321 320 320 320 321 324 324 324 323 324 324 322 322 323 324 328 331 335 344 351 357 5 13 22 27 27 28 29 26 22 23 24 20
319 320 321 321 322 324 324 323 321 321 321 320 319 319 319 321 322 324 324 325 325 325 327 329 331 339 349 355 360 7 14 21 28 30 29 31 28 20 16 19 19 20 15
318 319 321 322 322 322 322 322 322 321 320 319 319 319 318 318 320 322 323 323 325 326 329 333 339 347 352 358 7 15 19 20 20 20 19 15 14 15 18 17 9 2 1
319 321 322 322 322 323 323 322 323 321 321 320 318 317 316 314 315 317 319 321 322 325 327 331 339 345 352 358 4 7 5 5 5 7 9 13 12 11 6 359 355 354 353
319 321 322 323 323 323 324 324 323 323 324 322 321 320 318 315 315 315 317 319 319 322 318 324 330 337 343 350 354 356 359 358 359 2 6 7 2 358 353 349 349 353 351
321 322 323 324 324 325 325 325 325 324 323 323 325 323 321 319 317 315 315 315 316 314 311 314 319 327 332 339 345 348 352 354 356 1 1 356 351 349 348 347 349 352 354
320 322 324 325 326 326 327 327 327 326 325 324 324 324 324 322 320 316 312 308 309 306 302 305 310 322 330 336 337 341 349 353 354 355 351 347 345 347 346 348 352 357 0
322 323 325 326 327 328 329 329 328 327 326 325 324 323 323 322 320 318 315 308 305 302 298 293 299 317 328 328 327 337 345 349 346 341 342 342 343 347 349 353 358 0 0
322 324 326 327 328 329 329 329 328 327 326 325 323 322 319 316 314 315 311 308 300 295 290 287 294 313 328 327 323 331 337 341 341 345 343 342 345 346 351 357 0 1 3
324 325 327 327 329 329 329 329 329 328 327 326 325 324 322 317 317 311 306 306 302 294 285 279 288 300 323 322 321 327 335 341 346 343 339 342 345 349 353 355 357 359 359
325 326 327 328 329 330 330 330 330 329 328 328 327 327 327 325 320 313 306 301 298 290 282 276 284 292 312 320 319 325 331 338 343 342 339 340 344 348 351 352 353 353 355
325 327 327 329 331 332 332 333 332 332 331 330 329 329 329 329 325 318 310 304 296 287 279 278 284 290 308 318 318 323 328 334 337 337 337 339 343 346 346 349 352 354 355
325 327 328 330 332 334 334 335 336 336 335 330 328 332 335 336 331 324 316 308 294 282 279 285 287 295 307 314 315 320 327 332 335 335 335 339 341 342 343 347 350 351 350
325 327 328 331 333 334 336 338 340 340 336 329 331 338 347 351 351 344 330 312 296 288 287 288 291 300 308 312 313 319 325 328 329 330 332 334 335 334 337 340 343 343 342